SCP
0 0 1 1 1 1 1 1 1 1 0 0 0 0 0 0 0 0 0 0 0 0 0 0 -0 0 -0 -0 -0 0 0 0 0 0 0 0 0 0 0 0 0 0 0
0 0 0 0 0 0 1 1 0 0 0 0 0 0 0 0 0 0 0 0 0 0 0 -0 0 -0 -0 0 0 0 0 0 0 0 0 0 0 0 0 0 0 0 0
0 0 0 0 0 0 0 0 0 0 0 0 0 0 0 0 0 0 0 0 0 0 0 0 -0 -0 0 0 -0 0 0 0 0 0 0 0 0 0 0 0 0 0 0
0 0 0 0 0 0 0 0 0 0 0 0 0 0 0 0 0 0 0 0 0 0 0 -0 0 0 -0 0 0 -0 0 0 0 0 0 0 0 0 0 0 0 0 0
0 0 0 0 0 0 0 0 0 0 0 0 0 0 0 0 0 0 0 0 0 -0 -0 0 0 0 0 0 0 0 0 0 0 0 0 0 0 0 0 0 0 0 0
0 0 0 0 0 0 0 0 0 0 0 0 0 0 0 0 0 0 0 0 -0 -0 -0 0 0 0 0 0 0 0 -0 0 0 0 0 0 0 0 0 0 0 0 0
0 0 0 0 0 0 -0 -0 -0 0 0 0 0 0 0 -0 -0 0 0 -0 -0 0 0 0 0 0 0 0 0 0 0 0 0 0 0 0 0 0 0 0 0 0 0
0 0 0 0 0 0 -0 -0 -0 -0 0 0 0 0 0 -0 -0 0 0 0 -0 -0 0 0 -0 0 0 0 0 0 0 0 0 0 0 0 0 0 0 0 0 0 0
0 0 0 0 -0 -0 -0 -0 0 0 0 0 0 -0 -0 -0 -0 0 0 0 0 -0 -0 -0 0 0 -0 0 0 0 0 0 0 0 0 0 0 0 0 0 0 0 0
0 0 0 0 -0 -0 -0 0 0 0 0 0 0 -0 -0 -0 0 0 0 0 0 0 0 0 0 0 -0 -0 0 0 0 0 0 0 0 0 0 0 0 0 0 0 0
0 -0 -0 -0 -0 -0 -0 0 0 -0 0 0 0 -0 -0 0 -0 -0 0 0 0 0 0 0 0 0 -0 0 0 0 0 0 0 0 0 0 0 0 0 0 0 0 0
-0 -0 -0 -0 -0 -0 0 -0 0 -0 0 0 0 -0 -0 0 -0 -0 0 0 0 0 0 0 0 -0 0 0 0 0 0 0 0 0 0 0 0 0 0 0 0 0 0
-0 -0 -0 0 0 -0 -0 0 0 0 0 0 0 0 0 0 0 0 -0 0 0 0 0 0 -0 0 0 0 0 0 0 0 0 0 0 0 0 0 0 0 0 0 0
-0 0 0 0 0 0 -0 -0 -0 0 0 0 0 0 0 0 0 0 0 0 0 0 0 0 0 0 0 -0 0 0 0 0 0 0 0 0 0 0 0 0 0 0 0
0 0 0 -0 0 -0 0 0 0 0 0 0 0 0 0 0 -0 0 0 -0 -0 0 0 0 0 0 0 0 -0 0 0 0 0 0 0 0 0 0 0 0 0 0 0
-0 0 0 -0 -0 -0 0 0 -0 0 0 0 0 0 0 0 -0 0 0 -0 -0 -0 -0 0 0 0 0 0 0 0 0 0 -0 0 0 0 0 0 0 0 0 -0 -0
-0 0 -0 0 0 0 0 0 -0 0 0 0 0 -0 0 -0 -0 0 0 -0 0 0 0 0 0 0 0 0 0 0 0 0 0 0 -0 0 0 0 0 0 -0 -0 -0
0 -0 0 0 -0 0 0 0 -0 0 0 0 0 0 0 0 0 0 -0 0 0 0 0 0 0 0 0 0 0 0 0 0 0 0 0 -0 0 0 0 0 -0 -0 -0
-0 -0 -0 -0 0 0 0 0 0 0 0 0 0 0 0 0 0 0 0 0 0 0 0 0 0 0 0 0 -0 -0 -0 -0 0 -0 -0 -0 0 0 -0 -0 -0 -0 -0
-0 0 0 -0 -0 0 0 0 0 0 0 -0 -0 0 0 0 0 0 0 0 0 0 0 0 0 0 0 0 0 0 -0 0 -0 -0 -0 -0 -0 -0 -0 -0 -0 -0 0
0 0 0 0 -0 0 0 0 0 0 0 0 -0 0 0 -0 0 0 0 0 0 0 0 0 0 0 0 0 0 0 0 0 -0 -0 -0 -0 -0 -0 -0 -0 -0 -0 -0
0 0 0 0 0 0 0 0 0 0 0 0 0 0 -0 0 -0 -0 0 0 0 0 0 0 0 0 0 0 0 0 -0 0 -0 -0 -0 -0 -0 -0 0 0 -0 0 0
0 0 0 0 0 0 0 0 0 0 0 0 0 0 -0 0 0 0 0 0 0 0 0 0 0 0 -0 0 0 0 0 0 0 0 0 0 0 0 0 0 0 0 0
0 0 0 0 0 0 0 0 0 0 0 0 0 0 0 0 0 0 0 0 0 -0 -0 -0 -0 -0 -0 -0 -0 -0 -0 -0 0 0 0 0 0 0 0 0 0 0 0
0 0 0 0 0 0 0 0 0 0 0 0 0 0 0 0 0 0 0 0 0 0 0 0 0 0 0 0 0 0 0 0 0 0 0 -0 -0 -0 -0 -0 0 0 0
0 0 0 0 0 0 0 0 0 0 0 0 0 0 0 0 0 0 0 0 0 0 0 0 0 0 0 0 0 0 0 0 0 0 0 0 0 0 0 0 0 0 0
Wind_Speed_500mb
43 43 45 42 43 43 40 38 34 32 28 24 21 20 20 18 18 21 21 19 25 30 28 26 20 19 21 25 23 20 21 26 26 31 28 27 23 22 28 28 27 34 36
44 44 43 42 41 40 37 33 30 27 23 21 22 20 16 16 14 15 17 20 26 28 27 32 24 22 23 25 27 28 19 24 30 33 31 26 22 25 32 33 36 40 39
44 45 42 39 37 35 33 30 26 25 25 24 21 17 13 12 10 13 17 23 27 30 32 31 22 22 24 27 26 26 22 23 27 33 37 30 29 28 40 40 40 39 41
44 41 38 35 32 29 28 27 27 28 28 24 18 13 10 5 6 10 20 23 24 27 27 33 27 20 25 25 26 26 26 27 30 33 43 39 39 40 45 54 51 39 60
40 37 35 33 30 28 28 29 29 30 25 20 15 12 6 1 7 8 5 8 16 23 31 33 24 20 25 25 20 24 31 32 33 43 49 47 48 52 58 62 66 56 73
36 36 35 31 27 27 29 30 32 28 22 20 16 10 4 2 6 2 9 10 15 24 25 27 25 24 27 23 25 31 35 38 36 50 52 52 56 58 62 71 64 87 75
36 34 30 27 24 25 27 31 32 25 23 22 15 9 5 6 4 5 11 9 14 21 23 22 23 24 23 25 27 35 41 35 33 41 58 57 62 60 63 65 75 73 82
34 29 24 22 21 24 28 32 28 22 21 17 10 5 5 6 3 7 12 11 14 14 15 22 23 22 25 28 32 43 37 31 32 35 49 50 66 58 53 64 75 69 64
31 25 22 21 25 27 33 34 26 21 19 15 9 2 4 4 3 7 11 9 11 13 12 26 24 23 26 33 43 42 40 37 39 35 41 50 54 55 53 62 65 72 69
28 25 23 23 29 31 31 28 23 19 19 15 10 5 2 1 6 6 9 11 14 17 15 20 27 21 23 38 41 44 47 45 44 37 37 42 59 48 50 63 63 78 73
26 26 24 27 29 31 30 26 22 21 20 18 13 8 4 6 8 7 9 11 11 18 20 25 27 26 29 39 38 39 43 45 41 41 43 51 51 52 65 58 57 59 54
27 26 25 30 27 28 27 24 21 20 19 17 16 10 8 10 11 10 12 14 13 16 23 32 32 31 32 42 36 37 39 42 45 46 45 49 53 58 58 58 39 39 30
29 27 28 31 26 23 20 19 18 17 16 16 15 14 15 17 16 11 17 16 21 29 31 36 37 36 38 36 33 37 36 40 46 50 51 53 64 45 51 47 39 31 31
32 30 30 28 25 18 14 14 15 15 14 14 16 16 17 21 21 17 21 22 31 36 39 38 36 33 39 37 36 36 38 42 49 54 51 57 53 44 36 32 35 34 15
35 30 29 24 21 16 13 11 14 18 16 12 14 17 20 22 23 18 26 28 34 39 44 42 38 38 42 39 42 39 36 43 45 41 40 44 38 33 29 29 29 28 24
35 30 27 23 19 16 14 18 17 18 16 18 25 20 18 20 25 20 22 32 33 37 42 40 39 43 46 51 33 41 41 44 38 38 37 36 36 34 33 32 28 29 28
34 28 25 22 19 18 21 20 21 22 18 18 20 20 18 24 28 24 26 32 31 36 29 29 38 36 36 35 32 37 36 33 34 34 33 37 39 35 35 31 29 29 30
33 32 26 23 19 19 23 20 20 18 18 19 21 23 25 22 25 26 29 36 37 28 28 27 30 30 31 32 32 34 34 29 30 32 32 36 41 37 35 34 32 31 31
34 30 27 23 20 19 19 20 23 20 17 19 21 23 26 25 25 25 27 31 34 25 25 23 25 27 29 31 32 30 29 29 29 30 31 35 40 40 38 37 34 35 36
33 31 28 25 22 20 18 17 20 18 19 20 19 19 27 27 29 29 28 27 25 22 25 27 26 24 27 28 29 31 31 31 32 33 34 35 38 40 40 38 38 39 40
35 31 29 25 22 22 20 18 18 17 17 19 20 15 19 22 21 24 23 18 19 18 20 20 20 25 29 31 31 31 33 33 31 35 37 39 40 43 43 42 42 43 44
33 32 29 26 24 22 20 19 17 17 17 17 18 17 22 26 15 18 21 21 20 20 20 21 20 22 24 26 29 31 33 34 36 36 37 39 41 43 45 46 48 49 50
31 30 31 27 24 22 22 20 19 17 16 16 17 15 18 17 16 13 13 15 17 18 20 21 22 21 22 24 26 28 30 32 33 36 39 42 45 48 49 51 53 55 57
26 28 27 24 22 20 19 19 17 17 15 17 17 14 13 12 10 10 11 10 11 12 14 16 18 21 23 25 26 29 31 32 32 35 41 43 47 50 54 56 57 58 60
44 37 28 24 25 22 24 21 20 19 18 16 14 12 10 8 6 6 4 4 6 9 11 14 16 18 20 25 34 34 36 41 45 42 40 42 48 51 54 56 58 59 62
44 45 40 41 41 38 36 35 32 31 33 33 30 26 22 16 16 13 10 9 8 5 4 2 5 17 29 36 42 48 54 58 61 62 61 57 56 58 59 62 64 68 71
Wind_Direction_500mb
136 136 133 135 140 141 142 145 150 156 161 168 181 183 183 190 207 223 228 226 221 224 223 225 231 220 200 191 198 197 181 171 173 159 174 179 182 185 188 188 183 182 177
133 132 133 135 139 141 145 149 157 161 162 162 164 169 179 199 216 228 234 230 229 235 223 225 226 222 200 187 189 194 182 177 174 160 166 175 177 175 175 177 171 177 176
132 133 135 138 140 143 149 156 160 159 154 155 158 171 187 221 236 250 246 240 247 247 228 211 209 214 195 188 185 186 191 165 160 172 171 167 161 169 170 168 164 164 172
134 136 136 140 145 150 156 159 158 154 152 156 162 175 192 221 267 277 266 261 243 216 207 201 203 205 187 178 182 180 175 160 158 168 164 162 160 162 164 160 158 172 158
137 136 137 139 141 145 149 152 153 152 155 160 161 167 159 344 307 291 332 167 189 187 184 180 196 196 183 177 183 187 174 161 157 164 165 164 162 163 163 162 150 150 152
138 137 137 137 141 146 150 154 152 157 160 160 158 154 112 355 345 50 126 146 155 164 169 181 194 192 193 195 196 176 181 171 168 170 170 169 161 167 165 161 159 159 142
140 141 141 140 145 151 153 156 158 161 160 154 154 139 91 1 37 139 125 131 159 174 189 197 199 201 197 199 193 181 180 180 176 172 174 172 164 168 164 169 161 158 160
144 144 146 149 154 160 163 161 161 161 164 163 152 128 74 13 61 149 147 156 160 173 186 194 193 198 196 192 176 171 176 170 177 169 182 177 174 176 176 174 165 169 166
149 150 156 153 158 154 154 160 164 163 163 167 163 133 58 14 114 142 144 173 180 166 179 177 181 188 187 173 164 155 161 164 159 180 183 181 181 175 184 177 171 166 158
156 152 151 154 158 158 160 166 170 169 174 173 162 157 6 143 141 144 144 176 169 158 156 171 172 175 168 158 164 167 162 162 167 173 171 180 183 181 177 181 173 168 164
151 150 148 155 158 166 167 173 172 169 180 172 164 165 158 155 137 117 126 138 142 154 161 154 159 163 158 156 161 171 163 157 158 160 162 170 178 180 177 174 170 173 160
151 149 153 154 152 157 164 176 178 188 181 178 171 175 169 153 143 112 114 123 134 148 158 157 147 150 154 159 166 168 157 153 156 158 163 167 169 174 167 159 162 167 187
146 152 154 153 155 158 169 181 183 185 176 171 168 159 167 159 144 127 126 134 139 134 138 139 137 143 146 151 155 153 156 158 156 155 153 154 152 149 162 169 165 178 176
151 150 150 151 153 153 160 173 172 166 163 172 163 162 170 170 159 146 139 133 136 139 135 131 134 146 146 142 147 148 142 151 150 150 151 159 162 166 164 174 179 164 148
153 148 151 158 152 157 149 153 148 149 153 164 165 163 175 172 168 158 153 142 147 142 135 134 139 142 145 148 146 150 147 152 149 153 155 163 166 169 169 170 175 180 179
158 149 152 151 147 153 150 143 139 135 145 154 148 149 168 163 157 154 150 160 152 141 141 144 147 151 155 153 147 160 156 161 158 159 164 168 171 168 173 179 185 194 198
163 160 151 147 149 152 153 148 145 136 125 125 139 155 146 152 151 144 145 149 156 148 142 144 151 151 154 161 157 161 162 165 171 172 177 176 180 182 186 189 195 202 209
168 165 157 151 144 148 156 162 140 139 137 133 139 144 142 140 147 151 154 156 157 160 161 154 157 159 160 162 166 169 173 173 178 183 184 184 190 195 200 202 208 213 218
172 168 166 157 150 141 158 157 150 143 138 138 140 147 149 148 147 155 160 168 165 169 171 172 175 176 174 176 179 183 183 189 190 192 193 195 201 205 213 215 221 224 224
175 173 166 160 158 153 144 155 150 142 135 143 137 156 160 158 157 162 163 173 178 184 188 189 188 189 185 190 192 197 198 200 201 200 202 206 210 213 218 226 229 232 239
180 185 175 173 168 166 155 153 160 157 148 143 140 141 138 148 166 173 168 180 168 175 180 179 195 199 200 200 203 208 213 206 208 213 216 220 221 222 225 230 234 239 243
183 184 178 179 172 172 171 168 159 161 161 155 153 151 139 139 157 171 177 183 187 192 198 189 193 197 199 205 210 216 217 218 217 221 221 223 226 229 232 238 242 245 247
182 178 179 179 175 173 171 176 175 170 164 164 164 172 168 165 163 165 175 183 189 196 202 208 208 213 215 216 218 219 223 227 229 228 231 232 234 238 240 244 246 249 251
176 170 167 169 174 174 171 169 174 174 176 171 172 172 178 184 182 185 181 194 202 213 217 221 225 226 231 236 238 239 240 238 238 240 240 241 244 247 248 249 252 254 255
146 139 138 135 139 132 130 134 134 132 147 159 151 162 168 153 142 132 130 163 207 219 230 234 239 246 251 250 241 240 243 248 248 243 243 251 254 253 253 255 258 260 259
165 163 163 159 159 154 154 155 153 156 153 144 136 127 117 127 133 127 114 122 93 118 118 130 217 222 225 234 236 236 237 239 246 251 252 250 252 252 255 259 261 261 262
Wind_Speed_850mb
43 43 45 42 43 43 40 38 34 32 28 24 21 20 20 18 18 21 21 19 25 30 28 26 20 19 21 25 23 20 21 26 26 31 28 27 23 22 28 28 27 34 36
44 44 43 42 41 40 37 33 30 27 23 21 22 20 16 16 14 15 17 20 26 28 27 32 24 22 23 25 27 28 19 24 30 33 31 26 22 25 32 33 36 40 39
44 45 42 39 37 35 33 30 26 25 25 24 21 17 13 12 10 13 17 23 27 30 32 31 22 22 24 27 26 26 22 23 27 33 37 30 29 28 40 40 40 39 41
44 41 38 35 32 29 28 27 27 28 28 24 18 13 10 5 6 10 20 23 24 27 27 33 27 20 25 25 26 26 26 27 30 33 43 39 39 40 45 54 51 39 60
40 37 35 33 30 28 28 29 29 30 25 20 15 12 6 1 7 8 5 8 16 23 31 33 24 20 25 25 20 24 31 32 33 43 49 47 48 52 58 62 66 56 73
36 36 35 31 27 27 29 30 32 28 22 20 16 10 4 2 6 2 9 10 15 24 25 27 25 24 27 23 25 31 35 38 36 50 52 52 56 58 62 71 64 87 75
36 34 30 27 24 25 27 31 32 25 23 22 15 9 5 6 4 5 11 9 14 21 23 22 23 24 23 25 27 35 41 35 33 41 58 57 62 60 63 65 75 73 82
34 29 24 22 21 24 28 32 28 22 21 17 10 5 5 6 3 7 12 11 14 14 15 22 23 22 25 28 32 43 37 31 32 35 49 50 66 58 53 64 75 69 64
31 25 22 21 25 27 33 34 26 21 19 15 9 2 4 4 3 7 11 9 11 13 12 26 24 23 26 33 43 42 40 37 39 35 41 50 54 55 53 62 65 72 69
28 25 23 23 29 31 31 28 23 19 19 15 10 5 2 1 6 6 9 11 14 17 15 20 27 21 23 38 41 44 47 45 44 37 37 42 59 48 50 63 63 78 73
26 26 24 27 29 31 30 26 22 21 20 18 13 8 4 6 8 7 9 11 11 18 20 25 27 26 29 39 38 39 43 45 41 41 43 51 51 52 65 58 57 59 54
27 26 25 30 27 28 27 24 21 20 19 17 16 10 8 10 11 10 12 14 13 16 23 32 32 31 32 42 36 37 39 42 45 46 45 49 53 58 58 58 39 39 30
29 27 28 31 26 23 20 19 18 17 16 16 15 14 15 17 16 11 17 16 21 29 31 36 37 36 38 36 33 37 36 40 46 50 51 53 64 45 51 47 39 31 31
32 30 30 28 25 18 14 14 15 15 14 14 16 16 17 21 21 17 21 22 31 36 39 38 36 33 39 37 36 36 38 42 49 54 51 57 53 44 36 32 35 34 15
35 30 29 24 21 16 13 11 14 18 16 12 14 17 20 22 23 18 26 28 34 39 44 42 38 38 42 39 42 39 36 43 45 41 40 44 38 33 29 29 29 28 24
35 30 27 23 19 16 14 18 17 18 16 18 25 20 18 20 25 20 22 32 33 37 42 40 39 43 46 51 33 41 41 44 38 38 37 36 36 34 33 32 28 29 28
34 28 25 22 19 18 21 20 21 22 18 18 20 20 18 24 28 24 26 32 31 36 29 29 38 36 36 35 32 37 36 33 34 34 33 37 39 35 35 31 29 29 30
33 32 26 23 19 19 23 20 20 18 18 19 21 23 25 22 25 26 29 36 37 28 28 27 30 30 31 32 32 34 34 29 30 32 32 36 41 37 35 34 32 31 31
34 30 27 23 20 19 19 20 23 20 17 19 21 23 26 25 25 25 27 31 34 25 25 23 25 27 29 31 32 30 29 29 29 30 31 35 40 40 38 37 34 35 36
33 31 28 25 22 20 18 17 20 18 19 20 19 19 27 27 29 29 28 27 25 22 25 27 26 24 27 28 29 31 31 31 32 33 34 35 38 40 40 38 38 39 40
35 31 29 25 22 22 20 18 18 17 17 19 20 15 19 22 21 24 23 18 19 18 20 20 20 25 29 31 31 31 33 33 31 35 37 39 40 43 43 42 42 43 44
33 32 29 26 24 22 20 19 17 17 17 17 18 17 22 26 15 18 21 21 20 20 20 21 20 22 24 26 29 31 33 34 36 36 37 39 41 43 45 46 48 49 50
31 30 31 27 24 22 22 20 19 17 16 16 17 15 18 17 16 13 13 15 17 18 20 21 22 21 22 24 26 28 30 32 33 36 39 42 45 48 49 51 53 55 57
26 28 27 24 22 20 19 19 17 17 15 17 17 14 13 12 10 10 11 10 11 12 14 16 18 21 23 25 26 29 31 32 32 35 41 43 47 50 54 56 57 58 60
44 37 28 24 25 22 24 21 20 19 18 16 14 12 10 8 6 6 4 4 6 9 11 14 16 18 20 25 34 34 36 41 45 42 40 42 48 51 54 56 58 59 62
44 45 40 41 41 38 36 35 32 31 33 33 30 26 22 16 16 13 10 9 8 5 4 2 5 17 29 36 42 48 54 58 61 62 61 57 56 58 59 62 64 68 71
Wind_Direction_850mb
136 136 133 135 140 141 142 145 150 156 161 168 181 183 183 190 207 223 228 226 221 224 223 225 231 220 200 191 198 197 181 171 173 159 174 179 182 185 188 188 183 182 177
133 132 133 135 139 141 145 149 157 161 162 162 164 169 179 199 216 228 234 230 229 235 223 225 226 222 200 187 189 194 182 177 174 160 166 175 177 175 175 177 171 177 176
132 133 135 138 140 143 149 156 160 159 154 155 158 171 187 221 236 250 246 240 247 247 228 211 209 214 195 188 185 186 191 165 160 172 171 167 161 169 170 168 164 164 172
134 136 136 140 145 150 156 159 158 154 152 156 162 175 192 221 267 277 266 261 243 216 207 201 203 205 187 178 182 180 175 160 158 168 164 162 160 162 164 160 158 172 158
137 136 137 139 141 145 149 152 153 152 155 160 161 167 159 344 307 291 332 167 189 187 184 180 196 196 183 177 183 187 174 161 157 164 165 164 162 163 163 162 150 150 152
138 137 137 137 141 146 150 154 152 157 160 160 158 154 112 355 345 50 126 146 155 164 169 181 194 192 193 195 196 176 181 171 168 170 170 169 161 167 165 161 159 159 142
140 141 141 140 145 151 153 156 158 161 160 154 154 139 91 1 37 139 125 131 159 174 189 197 199 201 197 199 193 181 180 180 176 172 174 172 164 168 164 169 161 158 160
144 144 146 149 154 160 163 161 161 161 164 163 152 128 74 13 61 149 147 156 160 173 186 194 193 198 196 192 176 171 176 170 177 169 182 177 174 176 176 174 165 169 166
149 150 156 153 158 154 154 160 164 163 163 167 163 133 58 14 114 142 144 173 180 166 179 177 181 188 187 173 164 155 161 164 159 180 183 181 181 175 184 177 171 166 158
156 152 151 154 158 158 160 166 170 169 174 173 162 157 6 143 141 144 144 176 169 158 156 171 172 175 168 158 164 167 162 162 167 173 171 180 183 181 177 181 173 168 164
151 150 148 155 158 166 167 173 172 169 180 172 164 165 158 155 137 117 126 138 142 154 161 154 159 163 158 156 161 171 163 157 158 160 162 170 178 180 177 174 170 173 160
151 149 153 154 152 157 164 176 178 188 181 178 171 175 169 153 143 112 114 123 134 148 158 157 147 150 154 159 166 168 157 153 156 158 163 167 169 174 167 159 162 167 187
146 152 154 153 155 158 169 181 183 185 176 171 168 159 167 159 144 127 126 134 139 134 138 139 137 143 146 151 155 153 156 158 156 155 153 154 152 149 162 169 165 178 176
151 150 150 151 153 153 160 173 172 166 163 172 163 162 170 170 159 146 139 133 136 139 135 131 134 146 146 142 147 148 142 151 150 150 151 159 162 166 164 174 179 164 148
153 148 151 158 152 157 149 153 148 149 153 164 165 163 175 172 168 158 153 142 147 142 135 134 139 142 145 148 146 150 147 152 149 153 155 163 166 169 169 170 175 180 179
158 149 152 151 147 153 150 143 139 135 145 154 148 149 168 163 157 154 150 160 152 141 141 144 147 151 155 153 147 160 156 161 158 159 164 168 171 168 173 179 185 194 198
163 160 151 147 149 152 153 148 145 136 125 125 139 155 146 152 151 144 145 149 156 148 142 144 151 151 154 161 157 161 162 165 171 172 177 176 180 182 186 189 195 202 209
168 165 157 151 144 148 156 162 140 139 137 133 139 144 142 140 147 151 154 156 157 160 161 154 157 159 160 162 166 169 173 173 178 183 184 184 190 195 200 202 208 213 218
172 168 166 157 150 141 158 157 150 143 138 138 140 147 149 148 147 155 160 168 165 169 171 172 175 176 174 176 179 183 183 189 190 192 193 195 201 205 213 215 221 224 224
175 173 166 160 158 153 144 155 150 142 135 143 137 156 160 158 157 162 163 173 178 184 188 189 188 189 185 190 192 197 198 200 201 200 202 206 210 213 218 226 229 232 239
180 185 175 173 168 166 155 153 160 157 148 143 140 141 138 148 166 173 168 180 168 175 180 179 195 199 200 200 203 208 213 206 208 213 216 220 221 222 225 230 234 239 243
183 184 178 179 172 172 171 168 159 161 161 155 153 151 139 139 157 171 177 183 187 192 198 189 193 197 199 205 210 216 217 218 217 221 221 223 226 229 232 238 242 245 247
182 178 179 179 175 173 171 176 175 170 164 164 164 172 168 165 163 165 175 183 189 196 202 208 208 213 215 216 218 219 223 227 229 228 231 232 234 238 240 244 246 249 251
176 170 167 169 174 174 171 169 174 174 176 171 172 172 178 184 182 185 181 194 202 213 217 221 225 226 231 236 238 239 240 238 238 240 240 241 244 247 248 249 252 254 255
146 139 138 135 139 132 130 134 134 132 147 159 151 162 168 153 142 132 130 163 207 219 230 234 239 246 251 250 241 240 243 248 248 243 243 251 254 253 253 255 258 260 259
165 163 163 159 159 154 154 155 153 156 153 144 136 127 117 127 133 127 114 122 93 118 118 130 217 222 225 234 236 236 237 239 246 251 252 250 252 252 255 259 261 261 262